Location: Stara Lesna
(49.1528°N, 20.2911°E)
Time: 01:10:57
(UTC+02:00)

ATLAS CENTAUR R/B - Pass Details

Date: 21 September 2019
Orbit: 451 x 698 km, 64.7° (Epoch: 08 October)

Event Time Altitude Azimuth Distance (km) Brightness Sun altitude
Rises 04:45:58 0° 322° (NW) 3,005 4.9 -16.3°
Reaches altitude 10° 04:48:36 10° 333° (NNW) 2,054 4.2 -15.9°
Maximum altitude 04:52:43 30° 35° (NE) 1,115 3.4 -15.3°
Drops below altitude 10° 04:56:33 10° 98° (E) 1,911 5.1 -14.7°
Sets 04:58:55 0° 109° (ESE) 2,761 5.8 -14.3°
